Location: Cieszkowy
(50.3290°N, 20.5336°E)
Time: 15:07:12
(UTC+00:00)

UNK - Pass Details

Date: 15 June 2024
Orbit: 659 x 679 km, 98.3° (Epoch: 14 July)

Event Time Altitude Azimuth Distance (km) Brightness Sun altitude
Rises 01:16:51 0° 158° (SSE) 3,016 6.8 -8.4°
Reaches altitude 10° 01:19:05 10° 156° (SSE) 2,103 6.0 -8.2°
Maximum altitude 01:23:39 72° 72° (ENE) 709 4.0 -7.8°
Drops below altitude 10° 01:28:14 10° 349° (N) 2,106 6.9 -7.3°
Sets 01:30:28 0° 348° (NNW) 3,021 7.7 -7.1°
